Wind_Speed
30 31 33 35 36 37 39 41 42 41 39 37 38 44 52 54 53 52 50 49 49 48 48 49 52 55 57 59 61 62 64 64 64 65 65 64 64 64 65 64 64 63 63
28 29 32 34 35 36 37 38 38 35 32 30 29 32 40 48 51 52 50 47 46 46 46 47 51 54 55 56 58 60 61 62 62 63 64 64 64 64 64 64 63 62 61
28 30 32 34 34 34 34 34 33 30 25 23 22 24 31 39 44 48 50 50 47 45 45 46 48 53 57 57 58 58 58 59 58 58 60 61 61 61 61 61 61 60 60
31 32 33 34 34 32 31 30 28 25 21 19 19 20 25 31 38 44 47 48 47 45 43 44 44 47 51 53 54 53 53 52 53 54 56 57 58 59 59 60 60 60 61
34 35 34 34 34 32 29 27 25 23 19 17 17 20 25 28 32 37 40 42 44 43 41 40 40 41 44 47 49 49 49 50 51 53 55 56 57 58 58 58 59 59 60
38 38 37 35 34 32 30 26 23 21 18 17 16 20 24 27 29 32 35 37 39 39 39 38 37 39 42 43 45 46 47 48 49 51 53 55 57 58 58 58 58 59 60
41 41 40 38 36 33 31 27 24 21 19 18 18 19 23 27 29 30 32 33 35 36 36 36 36 38 40 42 43 45 46 46 47 48 49 51 54 56 57 58 57 56 56
44 43 42 40 38 35 33 30 26 23 21 21 20 20 23 25 27 27 28 29 31 31 32 34 35 37 39 42 43 44 45 46 47 48 48 48 49 51 54 56 57 56 55
47 45 43 41 39 36 34 32 30 27 25 24 23 23 24 26 27 28 28 30 30 31 33 35 36 37 38 40 41 42 43 45 47 48 48 48 48 48 50 52 52 52 51
49 46 44 41 39 36 34 33 32 31 29 28 27 27 27 27 29 30 31 31 32 34 35 36 37 38 38 38 39 39 40 41 43 44 45 46 46 46 47 47 47 47 46
52 49 47 44 41 38 35 33 33 32 32 32 32 32 31 31 31 32 33 34 35 36 36 37 38 39 39 39 38 37 37 38 39 40 41 41 43 43 44 44 44 44 43
53 51 49 46 44 42 39 36 35 34 34 34 35 36 37 37 36 36 36 36 37 37 38 38 38 39 39 39 38 37 37 36 37 38 39 40 41 41 43 43 43 43 43
47 46 46 45 44 44 43 41 39 38 37 36 37 38 40 41 42 42 42 41 41 41 40 40 40 40 41 40 40 39 39 39 39 39 39 40 41 41 42 42 43 44 44
45 43 41 39 39 39 41 43 43 43 42 41 41 41 42 44 46 47 47 47 47 47 46 45 44 43 43 43 43 42 41 41 41 40 40 41 42 43 43 43 44 44 44
47 45 42 39 36 34 34 35 39 43 46 47 46 46 46 47 49 50 51 51 52 52 52 51 50 49 48 46 45 45 44 43 43 42 42 42 43 43 43 43 43 42 42
48 46 43 40 37 34 32 31 31 33 37 42 47 50 51 51 52 53 54 55 55 56 56 56 55 54 54 52 50 49 48 47 47 46 45 45 45 45 44 44 43 43 42
49 47 44 41 38 35 32 30 29 29 29 31 36 42 48 53 56 57 57 58 58 58 58 59 59 59 58 57 56 55 53 52 51 51 50 49 49 48 48 47 45 45 44
51 49 46 43 40 37 34 32 29 27 27 27 28 30 35 41 47 54 59 61 62 62 62 62 62 63 62 62 61 60 59 58 57 56 55 54 54 53 52 52 51 50 48
53 50 48 45 43 40 37 34 32 30 28 27 27 26 27 30 34 39 47 54 60 64 65 65 65 65 65 65 65 65 64 64 63 62 61 60 59 59 58 57 56 55 54
55 53 51 49 46 43 40 37 35 33 31 29 28 28 27 27 27 29 33 38 46 53 60 65 68 69 69 68 68 68 68 68 67 67 67 66 65 64 64 63 62 60 59
56 53 51 49 48 46 43 40 37 34 32 31 30 29 28 27 27 26 27 28 32 37 44 52 60 66 70 71 72 71 70 70 70 70 70 69 70 69 68 67 66 65 64
58 54 52 52 52 49 45 41 37 35 33 31 30 29 28 27 26 26 25 25 26 27 31 36 42 50 59 66 71 73 74 74 73 72 72 72 71 71 71 70 69 68 67
62 61 59 57 55 51 46 42 38 35 32 29 27 26 26 26 25 24 24 24 24 24 25 27 30 35 40 48 57 65 70 74 76 76 75 74 73 73 72 71 70 69 68
65 63 60 59 56 51 47 43 40 35 31 27 24 22 21 22 22 22 22 23 23 22 22 22 23 25 28 32 37 45 53 62 69 74 76 77 76 75 73 71 70 68 66
63 62 61 60 58 54 50 46 42 37 32 27 23 19 17 17 17 18 19 19 20 20 19 17 17 18 19 21 24 28 33 40 49 57 65 71 74 76 75 74 71 69 66
61 60 60 60 61 59 56 53 48 43 37 31 25 20 16 15 14 13 14 14 15 15 14 12 11 10 9 10 12 15 18 23 28 35 43 51 58 64 69 71 71 70 68
Wind_Direction
297 299 304 306 306 305 308 309 308 301 292 284 270 251 238 234 233 236 239 243 244 243 242 242 241 241 242 242 243 243 244 244 245 246 247 247 247 248 249 249 249 249 249
304 306 309 310 309 308 310 314 314 308 297 285 272 253 236 229 229 232 234 237 240 239 239 239 239 240 241 243 243 244 245 245 246 247 248 249 249 249 248 248 248 249 249
315 314 314 313 311 309 312 316 319 315 304 288 272 251 236 229 230 232 233 234 236 236 237 238 241 242 241 241 242 243 244 245 244 245 247 248 248 248 247 246 247 247 247
322 319 317 315 312 309 312 316 319 319 308 288 270 250 235 231 232 233 235 236 236 235 237 239 241 242 241 240 240 240 241 241 242 244 245 246 247 247 247 247 246 246 246
323 320 317 315 311 308 309 312 315 317 311 291 269 249 237 234 234 234 235 235 235 236 236 236 235 235 235 236 236 237 239 241 243 244 245 246 246 247 248 248 247 246 245
319 318 316 314 310 306 303 304 306 307 304 292 273 252 241 238 235 233 233 232 233 233 233 232 231 231 231 233 234 237 239 242 244 246 246 246 247 247 247 248 248 247 245
316 315 313 312 309 304 298 295 294 292 292 287 275 260 245 237 234 234 233 232 231 231 230 230 229 230 231 232 235 238 241 243 245 247 247 247 246 245 246 245 245 244 243
316 313 312 310 308 304 297 290 284 280 277 276 273 262 250 243 239 237 235 231 229 227 226 227 229 231 233 235 237 240 242 244 246 247 247 247 246 244 244 243 241 241 241
314 312 310 307 305 302 297 289 281 273 268 265 263 261 255 248 242 238 234 229 227 227 228 228 230 234 236 238 240 242 244 245 245 245 244 245 245 244 242 239 236 236 236
312 309 307 304 301 298 295 289 280 272 265 260 257 255 253 249 246 241 235 232 231 231 231 232 234 237 238 239 241 244 245 247 246 243 242 242 243 242 238 233 231 231 232
308 306 303 300 297 294 290 286 280 273 265 258 254 252 250 248 246 244 239 236 235 234 235 236 238 239 240 240 241 243 246 246 245 241 240 239 239 237 233 229 228 229 230
308 304 300 295 291 287 284 280 277 272 266 259 254 251 249 247 246 245 242 240 237 237 237 238 239 240 240 241 243 244 245 245 243 239 237 237 236 234 231 229 229 230 231
319 313 306 299 291 285 279 274 270 268 265 261 256 252 249 247 246 244 244 243 241 240 241 241 242 242 241 242 243 244 244 243 241 238 236 234 233 232 231 230 230 231 233
335 331 325 317 307 295 285 276 270 265 262 259 257 254 250 248 246 245 244 243 243 242 242 242 243 243 243 242 242 242 242 242 239 237 235 233 232 231 231 230 230 231 233
344 342 338 333 326 317 305 292 280 271 264 260 256 254 253 251 248 246 245 244 244 244 243 243 243 243 242 242 242 242 241 241 240 238 236 234 232 231 230 230 230 231 233
349 346 344 342 338 332 325 315 302 289 277 268 262 256 253 252 251 249 247 246 245 244 244 244 243 243 243 242 241 241 241 240 240 239 237 235 234 233 232 232 232 233 234
352 350 348 347 344 340 335 329 321 311 300 287 275 267 260 255 252 251 250 249 247 246 245 245 244 244 243 243 242 241 241 240 240 239 238 237 236 236 235 234 234 235 237
355 353 351 349 347 343 338 334 329 323 316 308 296 285 274 266 259 255 252 251 250 248 247 246 245 245 244 244 244 243 242 241 241 240 240 239 238 238 238 237 237 238 239
357 356 355 352 348 344 339 335 330 326 321 316 310 303 294 284 274 265 258 254 251 250 248 247 246 245 245 245 244 244 243 243 242 241 241 241 240 240 240 240 240 240 241
358 357 356 353 349 345 339 334 329 324 320 315 311 307 304 299 293 283 273 264 258 254 251 249 247 246 245 245 244 244 244 243 243 243 242 242 241 242 242 242 243 243 243
359 357 354 352 349 345 340 335 329 323 318 312 307 304 301 300 298 296 290 282 272 264 257 252 249 248 246 245 244 244 244 244 243 243 243 243 243 243 243 244 244 245 246
0 359 357 355 352 348 344 338 332 326 320 312 306 301 298 297 298 298 297 294 288 279 270 262 256 251 248 246 245 244 244 244 243 243 243 243 244 244 244 245 246 247 247
4 4 2 359 355 352 349 345 340 334 328 320 311 304 298 296 297 298 299 300 298 292 283 274 266 259 253 249 246 245 244 244 244 243 243 244 244 244 245 245 246 247 248
8 7 5 3 2 0 358 355 351 347 342 335 326 316 307 302 299 299 301 303 304 301 294 285 276 269 262 256 251 247 245 244 244 244 244 244 244 244 245 245 246 246 247
11 12 12 11 11 11 9 7 4 1 356 351 345 336 327 318 311 307 307 309 311 310 307 300 290 281 272 265 258 252 248 245 244 243 243 244 244 245 245 245 245 246 246
15 16 18 20 22 22 21 20 18 16 14 11 7 1 354 345 336 329 327 327 327 329 330 328 323 314 299 282 267 257 251 248 246 244 243 243 244 244 244 245 245 245 246
Height
5508 5504 5500 5494 5488 5482 5476 5469 5461 5453 5447 5443 5440 5443 5451 5461 5471 5477 5483 5488 5493 5499 5505 5510 5516 5522 5528 5534 5540 5546 5553 5559 5566 5570 5575 5581 5587 5592 5596 5601 5605 5610 5614
5499 5495 5490 5485 5479 5473 5466 5459 5450 5442 5436 5432 5430 5431 5437 5446 5455 5462 5468 5474 5480 5485 5491 5497 5502 5508 5515 5520 5526 5531 5537 5543 5550 5555 5559 5564 5570 5575 5580 5585 5590 5594 5598
5491 5487 5481 5476 5470 5464 5458 5450 5442 5435 5429 5426 5424 5424 5428 5435 5442 5448 5455 5461 5466 5472 5478 5483 5489 5495 5501 5506 5511 5517 5523 5528 5534 5539 5543 5547 5553 5558 5564 5569 5574 5579 5583
5484 5479 5474 5468 5462 5456 5450 5443 5436 5430 5425 5422 5420 5420 5423 5428 5433 5437 5443 5448 5454 5460 5466 5471 5476 5481 5487 5492 5498 5503 5508 5514 5519 5524 5529 5533 5538 5543 5548 5554 5559 5563 5568
5478 5472 5466 5460 5454 5448 5442 5437 5431 5425 5421 5418 5417 5417 5419 5422 5425 5429 5433 5438 5444 5450 5455 5459 5464 5468 5473 5479 5485 5490 5495 5500 5505 5510 5514 5519 5523 5528 5533 5538 5542 5547 5551
5470 5464 5458 5452 5446 5440 5435 5430 5425 5421 5417 5414 5413 5413 5414 5415 5418 5421 5425 5430 5434 5439 5444 5448 5452 5457 5462 5467 5473 5478 5483 5488 5492 5496 5500 5504 5508 5513 5517 5522 5527 5531 5537
5461 5454 5448 5442 5436 5431 5426 5422 5418 5415 5412 5409 5408 5408 5408 5409 5411 5414 5417 5421 5425 5429 5434 5438 5442 5446 5451 5456 5461 5466 5471 5474 5478 5482 5485 5489 5493 5498 5503 5507 5511 5516 5521
5450 5443 5437 5431 5425 5420 5416 5412 5410 5407 5405 5403 5402 5402 5402 5403 5404 5406 5408 5411 5415 5419 5423 5427 5432 5436 5441 5445 5450 5454 5458 5462 5465 5468 5471 5475 5478 5482 5487 5492 5496 5502 5507
5438 5431 5424 5419 5414 5409 5405 5401 5399 5397 5396 5395 5395 5394 5394 5395 5396 5397 5399 5402 5405 5408 5413 5417 5421 5426 5430 5434 5439 5442 5446 5448 5451 5454 5457 5461 5464 5468 5472 5477 5482 5488 5494
5424 5417 5411 5406 5401 5397 5393 5389 5387 5386 5385 5385 5385 5385 5386 5386 5387 5389 5391 5393 5396 5399 5403 5407 5411 5415 5418 5422 5426 5429 5432 5434 5437 5440 5444 5447 5451 5455 5459 5464 5470 5476 5481
5409 5402 5396 5391 5386 5383 5379 5377 5374 5373 5372 5372 5373 5374 5374 5376 5377 5378 5380 5383 5385 5389 5392 5396 5400 5403 5407 5410 5414 5417 5419 5422 5424 5427 5431 5435 5439 5443 5448 5453 5459 5465 5471
5393 5385 5379 5374 5370 5366 5364 5362 5360 5358 5358 5358 5359 5360 5362 5363 5365 5366 5368 5371 5374 5378 5381 5384 5387 5391 5394 5398 5402 5404 5407 5410 5413 5416 5420 5424 5428 5433 5438 5444 5449 5455 5460
5377 5369 5361 5355 5351 5348 5346 5344 5343 5342 5342 5343 5344 5345 5347 5348 5350 5352 5355 5358 5361 5365 5368 5371 5375 5378 5382 5385 5389 5392 5396 5399 5402 5405 5409 5413 5418 5423 5428 5434 5439 5444 5450
5367 5357 5349 5341 5335 5330 5327 5325 5325 5324 5324 5326 5327 5328 5330 5332 5334 5336 5339 5342 5346 5350 5353 5357 5361 5364 5368 5372 5376 5380 5383 5387 5390 5394 5398 5403 5407 5412 5418 5423 5428 5434 5439
5361 5350 5341 5332 5324 5318 5313 5309 5307 5306 5306 5307 5309 5310 5312 5314 5316 5318 5321 5325 5328 5332 5336 5341 5345 5349 5353 5357 5361 5366 5370 5374 5378 5382 5387 5391 5396 5401 5406 5412 5417 5422 5427
5357 5346 5336 5326 5318 5310 5303 5298 5293 5290 5289 5288 5289 5291 5293 5295 5296 5299 5302 5305 5309 5313 5317 5322 5326 5331 5336 5340 5345 5350 5355 5360 5364 5369 5374 5379 5384 5389 5395 5400 5405 5411 5416
5354 5343 5332 5322 5313 5305 5298 5291 5285 5280 5276 5273 5271 5271 5272 5274 5277 5279 5282 5285 5288 5293 5297 5301 5306 5311 5316 5322 5327 5333 5338 5344 5349 5354 5360 5365 5371 5377 5382 5388 5393 5398 5404
5351 5339 5328 5318 5309 5301 5293 5286 5279 5273 5268 5263 5259 5256 5254 5254 5256 5258 5261 5264 5266 5271 5276 5281 5285 5290 5296 5302 5308 5313 5320 5326 5332 5338 5344 5350 5356 5362 5368 5374 5379 5385 5390
5349 5337 5326 5315 5305 5296 5287 5280 5273 5266 5260 5255 5250 5246 5243 5240 5238 5238 5239 5242 5245 5248 5253 5258 5264 5269 5275 5281 5287 5293 5299 5306 5313 5320 5327 5333 5339 5346 5352 5358 5364 5370 5375
5348 5334 5322 5311 5301 5291 5281 5272 5265 5258 5252 5246 5241 5237 5233 5230 5226 5224 5223 5223 5224 5226 5230 5235 5240 5246 5252 5259 5265 5272 5278 5285 5292 5300 5307 5314 5321 5327 5333 5340 5346 5353 5359
5347 5333 5321 5309 5296 5285 5274 5264 5256 5249 5242 5237 5232 5228 5224 5221 5217 5214 5212 5210 5209 5209 5210 5213 5217 5223 5229 5236 5243 5249 5256 5263 5271 5278 5285 5292 5299 5307 5314 5321 5327 5334 5341
5346 5333 5318 5304 5291 5278 5266 5256 5247 5239 5232 5226 5221 5218 5214 5212 5209 5206 5203 5201 5198 5197 5196 5196 5198 5201 5206 5212 5219 5226 5234 5241 5248 5256 5263 5271 5278 5285 5293 5301 5308 5315 5322
5344 5327 5312 5299 5286 5273 5260 5249 5239 5230 5223 5216 5211 5208 5205 5203 5201 5198 5196 5193 5190 5188 5186 5185 5185 5186 5188 5191 5196 5203 5210 5218 5226 5233 5241 5249 5256 5264 5272 5280 5288 5295 5303
5342 5328 5314 5299 5284 5270 5257 5245 5234 5224 5216 5209 5203 5200 5197 5195 5193 5192 5189 5187 5184 5181 5178 5177 5176 5175 5176 5177 5180 5184 5189 5195 5202 5210 5218 5226 5234 5242 5251 5260 5268 5276 5283
5347 5332 5318 5302 5287 5272 5258 5245 5233 5222 5213 5205 5199 5195 5192 5189 5188 5186 5184 5182 5179 5176 5173 5170 5169 5168 5167 5168 5169 5171 5174 5178 5182 5188 5195 5203 5212 5220 5229 5239 5248 5256 5264
5353 5339 5325 5310 5295 5279 5264 5250 5237 5225 5214 5206 5199 5193 5189 5187 5184 5182 5180 5178 5175 5172 5169 5167 5164 5163 5162 5161 5162 5163 5164 5167 5170 5174 5178 5184 5191 5199 5207 5216 5226 5235 5245